Terminal Aerodrome Forecast
Issued by NWS

Home | Current Version | Previous Version | Text Only | Print | Product List | Glossary On
Versions: 1 2 3 4 5 6 7 8 9 10 11 12 13 14 15 16 17 18 19 20 21 22 23 24 25 26 27 28 29 30 31 32 33
000
FTUS46 KOTX 021134
TAFPUW
TAF
KPUW 021134Z 0212/0312 23004KT P6SM -RA BKN050 OVC100
     FM021800 24010G16KT P6SM VCSH SCT050 BKN080 OVC100
     FM030100 25009KT P6SM SCT050 BKN100=

USA.gov is the U.S. government's official web portal to all federal, state and local government web resources and services.